Regional Weather Roundup
Issued by NWS

Home | Current Version | Previous Version | Text Only | Print | Product List | Glossary On
Versions: 1 2 3 4 5 6 7 8 9 10 11 12 13 14 15 16 17 18 19 20 21 22 23 24 25 26 27 28 29 30 31 32 33 34 35 36 37 38 39 40 41 42 43 44 45 46 47 48 49 50
000
ASUS44 KLIX 021211
RWRLA
LOUISIANA WEATHER ROUNDUP
NATIONAL WEATHER SERVICE NEW ORLEANS LA
700 AM CDT WED SEP 02 2015

NOTE: "FAIR" INDICATES FEW OR NO CLOUDS BELOW 12,000 FEET WITH NO
      SIGNIFICANT WEATHER AND/OR OBSTRUCTIONS TO VISIBILITY.
      SKY/WX - SKY CONDITION AND SIGNIFICANT WEATHER.
      TMP - AIR TEMPERATURE.    DP   - DEWPOINT TEMPERATURE.
      RH  - RELATIVE HUMIDITY.  PRES - PRESSURE.
      HX  - HEAT INDEX.         WCI  - WIND CHILL INDEX.

*  THESE STATIONS ARE NOT NWS OR FAA STATIONS AND ARE NOT UNDER
   NWS QUALITY CONTROL.

LAZ040-048-061>063-065-066-069-021300-
SOUTHEAST LOUISIANA

CITY           SKY/WX    TMP DP  RH WIND       PRES   REMARKS
N.O. AUDUBON     N/A     81  75  83 MISG        N/A
6HR MIN TEMP:  78; 6HR MAX TEMP:  82;

N.O. INTL ARPT CLOUDY    81  73  76 N5        30.06R
6HR MIN TEMP:  78; 6HR MAX TEMP:  81;

N.O. LAKEFRONT MOCLDY    80  74  81 SE5       30.06R
6HR MIN TEMP:  80; 6HR MAX TEMP:  83;

N.O. DOWNTOWN* CLOUDY    82  73  74 CALM      30.07R
6HR MIN TEMP:  82; 6HR MAX TEMP:  84;

RESERVE*       CLOUDY    78  74  90 CALM      30.06S
6HR MIN TEMP:  77; 6HR MAX TEMP:  78;

SLIDELL        MOCLDY    73  72  96 CALM      30.06R
6HR MIN TEMP:  73; 6HR MAX TEMP:  76;

BATON ROUGE    CLOUDY    77  72  84 SW3       30.07R
6HR MIN TEMP:  75; 6HR MAX TEMP:  78; 6HR PCP: TRACE;

BOOTHVILLE     MOCLDY    82  76  81 E3        30.05S
6HR MIN TEMP:  81; 6HR MAX TEMP:  83;

BELLE CHASSE   MOCLDY    75  73  93 CALM      30.05S FOG
6HR MIN TEMP:  74; 6HR MAX TEMP:  77;

BOGALUSA*      NOT AVBL
GALLIANO*      CLOUDY    74  73  96 CALM      30.05R
6HR MIN TEMP:  73; 6HR MAX TEMP:  77;

NEW ROADS*     PTSUNNY   74  73  97 CALM      30.07R FOG
6HR MIN TEMP:  74; 6HR MAX TEMP:  76;

GONZALES*      PTSUNNY   75  75 100 CALM      30.05S FOG
6HR MIN TEMP:  74; 6HR MAX TEMP:  76; 6HR PCP:  0.01;

HAMMOND*       CLOUDY    77  70  78 CALM      30.08R
HOUMA*         PTCLDY    75  75 100 N7        30.05R
PORT FOURCHON* SUNNY     84  75  74 E8        30.05R

$$

LAZ041-044-053-054-021300-
SOUTHWEST LOUISIANA

CITY           SKY/WX    TMP DP  RH WIND       PRES   REMARKS
LAKE CHARLES   CLOUDY    74  72  93 NE3       30.04R
6HR MIN TEMP:  74; 6HR MAX TEMP:  76; 6HR PCP:  0.01;

LAFAYETTE      CLOUDY    74  71  91 NE3       30.06R
6HR MIN TEMP:  74; 6HR MAX TEMP:  75; 6HR PCP: TRACE;

PATTERSON      CLOUDY    75  73  94 NE3       30.06S
6HR MIN TEMP:  75; 6HR MAX TEMP:  77;

SALT POINT       N/A     77  74  90 CALM      30.03R
6HR MIN TEMP:  77; 6HR MAX TEMP:  80;

NEW IBERIA     CLOUDY    76  73  91 CALM      30.06R
6HR MIN TEMP:  76; 6HR MAX TEMP:  79; 6HR PCP: TRACE;

CHENAULT AIRPK NOT AVBL

$$

LAZ027-028-021300-
CENTRAL LOUISIANA

CITY           SKY/WX    TMP DP  RH WIND       PRES   REMARKS
FORT POLK      CLOUDY    73  71  94 N6        30.05S
6HR MIN TEMP:  72; 6HR MAX TEMP:  73; 6HR PCP:  0.01;

ALEXANDRIA INT CLOUDY    73  72  96 CALM      30.06R
6HR MIN TEMP:  73; 6HR MAX TEMP:  74; 6HR PCP: TRACE;

ALEXANDRIA     CLOUDY    75  71  87 CALM      30.07R FOG
6HR MIN TEMP:  74; 6HR MAX TEMP:  76; 6HR PCP: TRACE;


$$

LAZ001-002-021300-
NORTHWEST LOUISIANA

CITY           SKY/WX    TMP DP  RH WIND       PRES   REMARKS
SHREVEPORT     PTCLDY    73  69  87 CALM      30.08R
6HR MIN TEMP:  71; 6HR MAX TEMP:  74;

BARKSDALE AFB  MOCLDY    73  72  97 CALM      30.07R
6HR MIN TEMP:  71; 6HR MAX TEMP:  73;

DTN SHREVEPORT MOCLDY    74  69  85 CALM      30.08R
6HR MIN TEMP:  72; 6HR MAX TEMP:  76;


$$

LAZ014-016-021300-
NORTHEAST LOUISIANA

CITY           SKY/WX    TMP DP  RH WIND       PRES   REMARKS
MONROE         CLOUDY    73  70  90 SW3       30.08R
6HR MIN TEMP:  73; 6HR MAX TEMP:  75;

TALLULAH       CLOUDY    74  71  91 CALM      30.07R
6HR MIN TEMP:  73; 6HR MAX TEMP:  77;


$$




USA.gov is the U.S. government's official web portal to all federal, state and local government web resources and services.